• In Uzbekistan
  • List of Countries
  • For 7 days
  • Water Temperature
  • Satellite Maps
  • Weather Map
  • Weather Widgets
  • user-avatar
    Login

    Hourly Weather Waldkirch

    Today, 18 July, Wednesday

    Time Temperature Precipitation Wind Pressure Humidity
    00:00 +16°C° 0 mm 1 mps 725 mmHg 85%
    01:00 +18°C° 0 mm 1 mps 725 mmHg 88%
    02:00 +15°C° 0 mm 0 mps 725 mmHg 88%
    03:00 +15°C° 0 mm 0 mps 725 mmHg 89%
    04:00 +15°C° 0 mm 0 mps 725 mmHg 89%
    05:00 +16°C° 0 mm 0 mps 725 mmHg 86%
    06:00 +17°C° 0 mm 0 mps 725 mmHg 83%
    07:00 +18°C° 0 mm 0 mps 726 mmHg 80%
    08:00 +20°C° 0 mm 0 mps 726 mmHg 72%
    09:00 +24°C° 0 mm 1 mps 726 mmHg 63%
    10:00 +26°C° 0 mm 1 mps 726 mmHg 55%
    11:00 +27°C° 0 mm 1 mps 726 mmHg 51%
    12:00 +28°C° 0 mm 1 mps 726 mmHg 48%
    13:00 +28°C° 0 mm 1 mps 726 mmHg 44%
    14:00 +28°C° 0 mm 2 mps 726 mmHg 44%
    15:00 +28°C° 0 mm 2 mps 725 mmHg 44%
    16:00 +28°C° 0 mm 2 mps 725 mmHg 44%
    17:00 +27°C° 0 mm 2 mps 725 mmHg 50%
    18:00 +26°C° 0 mm 2 mps 725 mmHg 56%
    19:00 +25°C° 0 mm 2 mps 725 mmHg 62%
    20:00 +23°C° 0 mm 2 mps 725 mmHg 67%
    21:00 +20°C° 0 mm 2 mps 725 mmHg 71%
    22:00 +18°C° 0 mm 2 mps 725 mmHg 76%
    23:00 +19°C° 0 mm 1 mps 725 mmHg 77%

    Tomorrow, 19 July, Thursday

    Time Temperature Precipitation Wind Pressure Humidity
    00:00 +18°C° 0 mm 1 mps 725 mmHg 79%
    01:00 +18°C° 0 mm 1 mps 725 mmHg 81%
    02:00 +16°C° 0 mm 1 mps 725 mmHg 82%
    03:00 +16°C° 0 mm 1 mps 725 mmHg 84%
    04:00 +16°C° 0 mm 1 mps 725 mmHg 85%
    05:00 +18°C° 0 mm 1 mps 725 mmHg 82%
    06:00 +19°C° 0 mm 1 mps 725 mmHg 78%
    07:00 +20°C° 0 mm 1 mps 725 mmHg 75%
    08:00 +22°C° 0 mm 1 mps 725 mmHg 68%
    09:00 +24°C° 0 mm 1 mps 725 mmHg 62%
    10:00 +26°C° 0 mm 1 mps 726 mmHg 55%
    11:00 +27°C° 0.1 mm 1 mps 725 mmHg 53%
    12:00 +28°C° 0.1 mm 1 mps 725 mmHg 51%
    13:00 +28°C° 0.1 mm 1 mps 725 mmHg 49%
    14:00 +28°C° 0.1 mm 1 mps 725 mmHg 49%
    15:00 +29°C° 0.1 mm 1 mps 725 mmHg 48%
    16:00 +29°C° 0.1 mm 2 mps 725 mmHg 48%
    17:00 +28°C° 0 mm 2 mps 724 mmHg 53%
    18:00 +27°C° 0 mm 2 mps 724 mmHg 59%
    19:00 +26°C° 0 mm 2 mps 724 mmHg 64%
    20:00 +24°C° 0 mm 1 mps 724 mmHg 69%
    21:00 +22°C° 0 mm 1 mps 724 mmHg 73%
    22:00 +20°C° 0 mm 1 mps 724 mmHg 78%
    23:00 +19°C° 0 mm 1 mps 724 mmHg 80%

    Day after tomorrow, 20 July, Friday

    Time Temperature Precipitation Wind Pressure Humidity
    00:00 +19°C° 0 mm 1 mps 724 mmHg 82%
    01:00 +18°C° 0 mm 1 mps 723 mmHg 84%
    02:00 +18°C° 0 mm 1 mps 723 mmHg 84%
    03:00 +18°C° 0 mm 1 mps 723 mmHg 84%
    04:00 +16°C° 0 mm 1 mps 723 mmHg 84%
    05:00 +18°C° 0.1 mm 1 mps 723 mmHg 82%
    06:00 +19°C° 0.1 mm 1 mps 723 mmHg 79%
    07:00 +20°C° 0.1 mm 1 mps 723 mmHg 77%
    08:00 +23°C° 0 mm 1 mps 723 mmHg 70%
    09:00 +25°C° 0 mm 1 mps 723 mmHg 63%
    10:00 +27°C° 0 mm 1 mps 723 mmHg 55%
    11:00 +28°C° 0.4 mm 1 mps 723 mmHg 53%
    12:00 +29°C° 0.4 mm 1 mps 723 mmHg 50%
    13:00 +30°C° 0.4 mm 2 mps 722 mmHg 47%
    14:00 +30°C° 0.3 mm 2 mps 722 mmHg 46%
    15:00 +30°C° 0.3 mm 2 mps 722 mmHg 46%
    16:00 +30°C° 0.3 mm 2 mps 722 mmHg 45%
    17:00 +28°C° 0.5 mm 2 mps 721 mmHg 53%
    18:00 +27°C° 0.5 mm 2 mps 721 mmHg 61%
    19:00 +25°C° 0.5 mm 2 mps 721 mmHg 69%
    20:00 +23°C° 0.7 mm 1 mps 721 mmHg 74%
    21:00 +22°C° 0.7 mm 1 mps 721 mmHg 80%
    22:00 +18°C° 0.7 mm 0 mps 721 mmHg 85%
    23:00 +20°C° 0.6 mm 1 mps 721 mmHg 88%

    21 July, Saturday

    Time Temperature Precipitation Wind Pressure Humidity
    00:00 +19°C° 0.6 mm 1 mps 721 mmHg 90%
    01:00 +19°C° 0.6 mm 1 mps 721 mmHg 93%
    02:00 +19°C° 0.2 mm 1 mps 721 mmHg 93%
    03:00 +18°C° 0.2 mm 1 mps 720 mmHg 94%
    04:00 +18°C° 0.2 mm 1 mps 720 mmHg 94%
    05:00 +19°C° 0.4 mm 1 mps 720 mmHg 93%
    06:00 +19°C° 0.4 mm 1 mps 721 mmHg 91%
    07:00 +20°C° 0.4 mm 1 mps 721 mmHg 90%
    08:00 +21°C° 0.6 mm 1 mps 721 mmHg 85%
    09:00 +21°C° 0.6 mm 2 mps 721 mmHg 80%
    10:00 +23°C° 0.6 mm 2 mps 722 mmHg 75%
    11:00 +23°C° 0.8 mm 2 mps 722 mmHg 73%
    12:00 +23°C° 0.8 mm 2 mps 722 mmHg 72%
    13:00 +24°C° 0.8 mm 2 mps 722 mmHg 70%
    14:00 +24°C° 0.6 mm 2 mps 722 mmHg 71%
    15:00 +24°C° 0.6 mm 2 mps 721 mmHg 72%
    16:00 +23°C° 0.6 mm 2 mps 721 mmHg 73%
    17:00 +23°C° 0.2 mm 2 mps 721 mmHg 74%
    18:00 +21°C° 0.2 mm 2 mps 722 mmHg 76%
    19:00 +22°C° 0.2 mm 1 mps 722 mmHg 77%
    20:00 +20°C° 0.1 mm 1 mps 722 mmHg 81%
    21:00 +19°C° 0.1 mm 1 mps 722 mmHg 84%
    22:00 +18°C° 0.1 mm 1 mps 722 mmHg 87%
    23:00 +16°C° 0 mm 1 mps 722 mmHg 89%

    22 July, Sunday

    Time Temperature Precipitation Wind Pressure Humidity
    00:00 +16°C° 0 mm 1 mps 722 mmHg 90%
    01:00 +15°C° 0 mm 1 mps 722 mmHg 92%
    02:00 +15°C° 0 mm 1 mps 722 mmHg 93%
    03:00 +15°C° 0 mm 1 mps 722 mmHg 93%
    04:00 +14°C° 0 mm 1 mps 722 mmHg 94%
    05:00 +15°C° 0 mm 1 mps 722 mmHg 91%
    06:00 +16°C° 0 mm 1 mps 722 mmHg 89%
    07:00 +18°C° 0 mm 1 mps 723 mmHg 86%
    08:00 +20°C° 0.2 mm 1 mps 723 mmHg 79%
    09:00 +22°C° 0.2 mm 1 mps 723 mmHg 73%
    10:00 +23°C° 0.2 mm 2 mps 723 mmHg 66%
    11:00 +24°C° 0.3 mm 2 mps 723 mmHg 62%
    12:00 +25°C° 0.3 mm 2 mps 723 mmHg 59%
    13:00 +26°C° 0.3 mm 2 mps 723 mmHg 55%
    14:00 +26°C° 0.5 mm 3 mps 723 mmHg 57%
    15:00 +26°C° 0.5 mm 3 mps 723 mmHg 59%
    16:00 +26°C° 0.5 mm 3 mps 723 mmHg 60%
    17:00 +25°C° 0.4 mm 2 mps 723 mmHg 64%
    18:00 +24°C° 0.4 mm 2 mps 723 mmHg 69%
    19:00 +23°C° 0.4 mm 2 mps 723 mmHg 73%
    20:00 +21°C° 0.1 mm 1 mps 724 mmHg 77%
    21:00 +20°C° 0.1 mm 1 mps 724 mmHg 81%
    22:00 +18°C° 0.1 mm 1 mps 724 mmHg 84%
    23:00 +16°C° 0 mm 1 mps 724 mmHg 86%

    23 July, Monday

    Time Temperature Precipitation Wind Pressure Humidity
    00:00 +16°C° 0 mm 1 mps 724 mmHg 88%
    01:00 +15°C° 0 mm 1 mps 724 mmHg 90%
    02:00 +15°C° 0 mm 1 mps 724 mmHg 90%
    03:00 +14°C° 0 mm 0 mps 724 mmHg 91%
    04:00 +14°C° 0 mm 0 mps 724 mmHg 91%
    05:00 +16°C° 0 mm 1 mps 724 mmHg 89%
    06:00 +18°C° 0 mm 1 mps 724 mmHg 86%
    07:00 +19°C° 0 mm 1 mps 724 mmHg 84%
    08:00 +21°C° 0 mm 1 mps 724 mmHg 76%
    09:00 +23°C° 0 mm 2 mps 724 mmHg 67%
    10:00 +25°C° 0 mm 2 mps 724 mmHg 59%
    11:00 +26°C° 0 mm 3 mps 724 mmHg 56%
    12:00 +27°C° 0 mm 3 mps 724 mmHg 52%
    13:00 +27°C° 0 mm 3 mps 724 mmHg 49%
    14:00 +28°C° 0 mm 3 mps 724 mmHg 49%
    15:00 +28°C° 0 mm 3 mps 723 mmHg 48%
    16:00 +28°C° 0 mm 3 mps 723 mmHg 48%
    17:00 +27°C° 0 mm 3 mps 723 mmHg 54%
    18:00 +26°C° 0 mm 3 mps 723 mmHg 60%
    19:00 +25°C° 0 mm 2 mps 723 mmHg 66%
    20:00 +24°C° 0 mm 2 mps 723 mmHg 73%
    21:00 +21°C° 0 mm 2 mps 723 mmHg 80%
    22:00 +19°C° 0 mm 2 mps 723 mmHg 86%
    23:00 +18°C° 0 mm 2 mps 722 mmHg 88%
    Show more